[ hide orbit diagram ]
For accurate long-term ephemerides, please instead use our Horizons system.This orbit viewer was implemented using two-body methods, and hence should not be used for determining accurate long-term trajectories (over several years or decades) or planetary encounter circumstances.
Orbital Elements at Epoch 2459000.5 (2020-May-31.0) TDB
Reference: JPL 17 (heliocentric ecliptic J2000)
Element | Value | Uncertainty (1-sigma) | Units |
e | .1072992199171099 | 6.8405e-08 | |
a | 2.350977332997199 | 1.3972e-08 | au |
q | 2.098719299123792 | 1.5475e-07 | au |
i | 2.09324855652459 | 6.4395e-06 | deg |
node | 214.8275466186998 | 0.00010339 | deg |
peri | 21.20894655739525 | 0.00010522 | deg |
M | 107.0480870797439 | 1.8243e-05 | deg |
tp | 2458608.985816579720 (2019-May-05.48581658) | 6.7076e-05 | TDB |
period | 1316.652262326798 3.60 | 1.1737e-05 3.213e-08 | d yr |
n | .2734207127429419 | 2.4374e-09 | deg/d |
Q | 2.603235366870607 | 1.5471e-08 | au |
|
| | Orbit Determination Parameters
Additional Information
|
[ hide covariance matrix ]
Orbital Elements at Epoch 2457945.5 (2017-Jul-11.0) TDB
Reference: JPL 17 (heliocentric ecliptic J2000)
Element | Value | Uncertainty (1-sigma) | Units |
e | .1067790371320866 | 6.8467e-08 | |
q | 2.100608634846081 | 1.5481e-07 | au |
tp | 2457292.642634853302 (2015-Sep-27.14263485) | 7.0295e-05 | TDB |
node | 214.8504081295723 | 0.00010334 | deg |
peri | 21.47287868879068 | 0.0001052 | deg |
i | 2.093456016159402 | 6.4413e-06 | deg |
|
| | Orbit Determination Parameters
Additional Information
|
Orbit Covariance (6×6)
|
|
e |
q |
tp |
node |
peri |
i |
e |
4.687693446087833E-15 |
-1.057419738185523E-14 |
-1.91020279816162E-12 |
3.777005620118745E-14 |
-5.438465824869216E-13 |
-4.159910701140041E-15 |
q |
-1.057419738185523E-14 |
2.396706605259005E-14 |
4.223869563817431E-12 |
-8.528769064874542E-14 |
1.217886256892518E-12 |
9.532559981708401E-15 |
tp |
-1.91020279816162E-12 |
4.223869563817431E-12 |
4.94137970610122E-9 |
-6.605948137239136E-12 |
1.390772861661149E-9 |
2.683958409418917E-12 |
node |
3.777005620118745E-14 |
-8.528769064874542E-14 |
-6.605948137239136E-12 |
1.067841456150106E-8 |
-1.067219475544369E-8 |
8.880534599172812E-11 |
peri |
-5.438465824869216E-13 |
1.217886256892518E-12 |
1.390772861661149E-9 |
-1.067219475544369E-8 |
1.106672532482664E-8 |
-8.799261726423201E-11 |
i |
-4.159910701140041E-15 |
9.532559981708401E-15 |
2.683958409418917E-12 |
8.880534599172812E-11 |
-8.799261726423201E-11 |
4.149080685595513E-11 |
|
Physical Parameter Table
Parameter |
Symbol |
Value |
Units |
Sigma |
Reference |
Notes |
absolute magnitude |
H |
16.7 |
|
n/a |
MPO338423 |
|
|
183891 (2004 CG76) Discovered 2004-Feb-11 by NEAT at Palomar |
Reference: 20080420/Numbers.arc | Last Updated: 2008-04-23 |
|
|